OPS 4682 DEB, 20131

Orbit data source: Space-Track

OPS 4682 DEB, 20131 is space debris in LEO originally from a launch on Sat, 03 Apr 1965 UTC launched from the Air Force Western Test Range (AFWTR). Debris objects in space refer to the collection of defunct objects orbiting the Earth. Examples of debris include non-operational satellites, rocket bodies, and fragments generated from explosions, collisions, or faulty payload assembly.

Loading next visibility...
Identifier
20131, 1965-027BD
Orbit
LEO
Country
Flag of USUS
Related business
Manufacturer
Unknown
Mission
Spacecraft
Bus & Motor
Unknown
Mass
Unknown
Launch date (UTC)
1965-04-03 (61 years ago)
Launch vehicle
Unknown
Launch site
Air Force Western Test Range (AFWTR)
Object type
Payload
Rocket body
Debris
Shape & HBR
Unknown shape, 0.1 m
Radar Cross Section
Small (<0.1 m²)

Expand to show TLE details & history
Last TLE update: 3 days ago

TLE from 3 days ago
0 OPS 4682 DEB
1 20131U 65027BD  25290.98106670  .00001175  00000-0  38635-2 0  9993
2 20131  90.2443 359.2039 0032942 231.7299 308.6976 13.00162611733491
Epoch: 2025-10-17T23:32Z
TLE epoch observation values (Epoch: 2025-10-17T23:32:44.162Z)
Latitude
-0.24583°
Longitude
159.3002°
Altitude
1,248.679 km
Speed
7.238 km/s
True Right ascension
11h 56m 48s
True Declination
0° 14' 40"
Sunlit
Object was in daylight at epoch
Visualization orbit readout
Latitude
Unknown
Longitude
Unknown
Altitude
Unknown
Speed
Unknown
Apparent Right ascension
Unknown
Apparent Declination
Unknown
Sunlit
N/A
Visualization observer readout
Local Sidereal Time
11:34:03
Azimuth
Unknown
Elevation
Unknown
Doppler factor
Unknown
Orbital elements
Apogee altitude
1,283.733 km
Perigee altitude
1,233.419 km
Semi-major axis
7,636.713 km
Eccentricity
0.00329
Inclination
90.2443°
RAAN
359.2039°
Arg. of periapsis
231.7299°
True anomaly
308.40223°
Mean anomaly
308.6976°
Eccentric anomaly
308.54999°
Mean motion
3.25225 °/min
Orbital period
110.69 mins
BSTAR
0.0038635
Loading maneuver chart data...
Computing Atmospheric mass density...
Loading historical data...
Loading historical data...
Loading historical data...
Loading historical data...
Loading historical data...
Loading historical data...
Loading historical data...

Documentation

Showing up to 5 results
|